Regional Weather Roundup
Issued by NWS

Home | Current Version | Previous Version | Graphics & Text | Print | Product List | Glossary On
Versions: 1 2 3 4 5 6 7 8 9 10 11 12 13 14 15 16 17 18 19 20 21 22 23 24 25 26 27
000
ASUS45 KTFX 271910
RWRMT
MONTANA REGIONAL WEATHER ROUNDUP
NATIONAL WEATHER SERVICE GREAT FALLS MT
100 PM MDT SAT MAY 27 2017

NOTE: "FAIR" INDICATES FEW OR NO CLOUDS BELOW 12000 FEET WITH NO
SIGNIFICANT WEATHER AND/OR OBSTRUCTIONS TO VISIBILITY.

MTZ001>007-043-272000-
WEST OF THE DIVIDE

CITY           SKY/WX    TMP DP  RH WIND       PRES   REMARKS
KALISPELL      SUNNY     69  42  37 VRB5      30.13S
MISSOULA       SUNNY     71  41  33 MISG      30.17F
BUTTE          CLOUDY    60  31  33 W12       30.22R
MULLAN PASS    SUNNY     57  34  41 VRB6      30.27R
ANACONDA         N/A     61  34  36 E6        30.20S
DEER LODGE       N/A     64  36  34 NW14G20   30.21S
EUREKA           N/A     70  39  32 CALM      30.12F
HAMILTON         N/A     66  34  30 CALM      30.18S
PLAINS           N/A     73  47  39 CALM      30.13
RONAN            N/A     70  40  33 S5        30.19S
$$

MTZ008-052>055-272000-
SOUTHWEST MONTANA

CITY           SKY/WX    TMP DP  RH WIND       PRES   REMARKS
BOZEMAN        SUNNY     64  40  41 N7        30.18S
DILLON         CLOUDY    63  34  33 E5        30.21R
ENNIS          MOSUNNY   61  32  33 NW12      30.26R
THREE FORKS      N/A     68  38  33 E5        30.14S
TWIN BRIDGES     N/A     64  33  31 CALM      30.16S
$$

MTZ009-010-012-014-046-048-049-054-272000-
EAST SLOPES AND CENTRAL MONTANA

CITY           SKY/WX    TMP DP  RH WIND       PRES   REMARKS
CUT BANK       MOSUNNY   73  36  25 NW12      30.08R
GREAT FALLS    PTSUNNY   70  32  24 NW13      30.09R
MALMSTROM AFB  CLOUDY    69  37  30 W13G21    30.09R
HELENA         SUNNY     70  40  33 VRB5      30.13S
CHOTEAU          N/A     72  32  23 NW12G18   30.12R
CONRAD           N/A     72  43  35 W8        30.10R
$$

MTZ011-013-016-021-045-047-050-051-272000-
NORTH CENTRAL MONTANA

CITY           SKY/WX    TMP DP  RH WIND       PRES   REMARKS
HAVRE          SUNNY     77  34  21 NW14G22   29.98S
LEWISTOWN      PTSUNNY   67  34  29 W16G25    30.08R
N BAR RANCH      N/A     66  36  32 NW21G31   30.10R
CHINOOK          N/A     75  28  17 NW13G21   29.96S
FORT BENTON      N/A     75  36  23 CALM      30.04S
$$

MTZ017>020-022>027-061-062-272000-
NORTHEAST MONTANA

CITY           SKY/WX    TMP DP  RH WIND       PRES   REMARKS
GLASGOW        MOSUNNY   74  37  26 NW18G26   29.91R
JORDAN           N/A     76  37  24 NW22G29   29.94F
SIDNEY         MOSUNNY   75  39  27 NW21G26   29.85F
WOLF POINT     MOSUNNY   76  34  21 NW22G28   29.87S
MALTA          PTSUNNY   75  36  23 NW13G20   29.92S
PLENTYWOOD       N/A     66  37  34 W23G38    29.83R
POPLAR           N/A     73  36  25 NW20G26   29.85S
SCOBEY           N/A     64  39  39 NW22      29.91R
$$

MTZ028>42-056>058-272000-
SOUTHCENTRAL AND SOUTHEAST MONTANA

CITY           SKY/WX    TMP DP  RH WIND       PRES   REMARKS
BAKER          MOSUNNY   69  36  29 W23G36    29.95F
BILLINGS       CLOUDY    68  33  27 NW21G31   30.07S
LIVINGSTON     MOSUNNY   66  40  38 W8        30.15S
MILES CITY     MOSUNNY   74  35  24 W20G32    29.96S
BIG TIMBER     PTSUNNY   63  34  34 W8G17     30.16S
EKALAKA          N/A     67  37  33 W16       29.98S
FORSYTH          N/A     70  36  28 W10G17    29.99S
LAUREL           N/A     68  36  30 W12       30.07F
ROUNDUP          N/A     70  33  25 W17       29.96S
$$

REGIONAL REPORTS...DAKOTAS

CITY           SKY/WX    TMP DP  RH WIND       PRES   REMARKS
WILLISTON      PTSUNNY   76  36  23 W18       29.82F
MINOT          CLOUDY    69  37  30 W30G38    29.78S
DICKINSON      MOSUNNY   71  35  26 W18G33    29.86F
BEACH          PTSUNNY   70  36  28 W22       29.93F
CROSBY           N/A     66  37  34 NW12      29.78F
TIOGA          PTSUNNY   68  34  28 W14       29.81F
WATFORD CITY     N/A     70  39  32 W15G28    29.83F
BISMARCK       MOSUNNY   76  39  26 W20G28    29.84F
GRAND FORKS    PTSUNNY   77  41  27 W16G28    29.75F
FARGO          MOSUNNY   78  38  23 W21G28    29.78F
BUFFALO SD       N/A     70  34  26 NW23G37   29.90F
RAPID CITY     SUNNY     69  35  28 NW15G25   30.01S
$$

REGIONAL REPORTS...WYOMING/IDAHO/WASHINGTON

CITY           SKY/WX    TMP DP  RH WIND       PRES   REMARKS
GILLETTE       MOSUNNY   64  38  38 W12G23    30.08F
SHERIDAN       SUNNY     66  35  31 NW17G25   30.10S
BUFFALO WY     SUNNY     64  33  31 N21       30.13R
CODY           MOSUNNY   63  27  25 VRB6      30.18R
YELLOWSTONE LA   N/A     39  34  82 CALM      30.31R
IDAHO FALLS    MOSUNNY   58  44  60 VRB6      30.26S
SALMON         SUNNY     64  39  39 SW6       30.17F
BOISE          SUNNY     72  41  32 N7        30.18F
SPOKANE        MOSUNNY   73  42  32 SW12      30.15R
$$

REGIONAL REPORTS...ALBERTA

CITY           SKY/WX    TMP DP  RH WIND       PRES   REMARKS
EDMONTON       SUNNY     73  46  38 NW8       29.93R
CALGARY        MOSUNNY   73  37  27 N13G20    30.03S
MEDICINE HAT   MOSUNNY   77  34  20 W12G23    29.95S
WATERTON GATE    N/A     70  37  30 SW13G21     N/A
CARDSTON         N/A     72  41  33 NW6         N/A
ONEFOUR          N/A     70  37  30 NW14G23     N/A
$$

REGIONAL REPORTS...SASKATCHEWAN

CITY           SKY/WX    TMP DP  RH WIND       PRES   REMARKS
SWIFT CURRENT  PTSUNNY   70  36  28 N18G31    29.90S
REGINA         MOSUNNY   70  37  30 NW22G32   29.78S
SASKATOON      MOSUNNY   68  32  26 NW22G31   29.83S
CYPRESS HILLS    N/A     66  34  30 NW10G18     N/A
VAL MARIE        N/A     73  34  23 NW23G32     N/A
ROCKGLEN         N/A     66  36  32 N14G23      N/A
$$




USA.gov is the U.S. government's official web portal to all federal, state and local government web resources and services.